Weather in Chystiakove

Ukraine / Donetsk Region     48˚01′32″N   38˚37′00″E
temp.,
°C
wind,
m/s
gust,
m/s
humid.,
%
clouds,
%
prec.,
mm/h
press.,
hPa
HPBL,
m
28 november, sat
sat2823:00+5˚ssw41094100 0.1 1023376
02:00+4˚s489598 0.1 1023273
05:00+4˚s599694 0.0 1023308
08:00+4˚sse488989 0.0 1024329
11:00+5˚sse588097 0.0 1024464
14:00+6˚se586797 0.0 1023546
17:00+3˚ese5119250 0.0 1023307
20:00+2˚ese5108864 0.0 1024297
29 november, sun
sun2923:00+1˚ese598795 0.0 1024256
02:00+1˚ese499777 0.0 1024240
05:00+2˚ese699784 0.0 1023345
08:00+3˚se699692 0.0 1024428
11:00+4˚se6992100 0.0 1024437
14:00+6˚se51084100 0.0 1024500
17:00+5˚ese6138991 0.0 1025445
20:00+5˚ese6149194 0.0 1026491
30 november, mon
mon3023:00+4˚ese51294100 0.0 1025396
02:00+5˚ese71192100 0.0 1026476
05:00+5˚ese71189100 0.0 1025553
08:00+5˚ese71184100 0.0 1026642
11:00+6˚ese7107093 0.0 1026836
14:00+5˚ese7107097 0.0 1025925
17:00+5˚ese71175100 0.0 1025895
20:00+4˚ese71172100 0.0 1025869
1 december, tue
tue123:00+3˚ese7127493 0.0 1025603
02:00+1˚e7137580 0.0 1025533
05:00e7147910 0.0 1025565
08:00e7138127 0.0 1026622
11:00+2˚ese8127167 0.0 1026694
14:00+3˚ese8117072 0.0 1025880
17:00+2˚e81274100 0.0 1026905
20:00+1˚e81376100 0.0 1027715
2 december, wed
wed223:00ese8137899 0.0 1027648
02:00ese8138196 0.0 1027592
05:00ese8138299 0.0 1028630
08:00ese7128099 0.0 1028563
11:00+1˚ese7117799 0.0 1029587
14:00+2˚ese7127095 0.0 1028693
17:00e6137327 0.0 1029560
20:00−1˚ese7137414 0.0 1030544